SHIELDS 1 (43850 NORAD) Tracking and Keplerian Element Data

This shows tracking and keplerian element data for the satellite.

Feedback or suggestion? Click here.




ElementValue
Catalog43850
NameSHIELDS 1
Epoch Orbit2399
Epoch Day143.20019314
Epoch Year2019
RAAN73.9592
Inclination85.0334
Eccentricity0.0017818
Argument of Perigee70.2639
Mean Anonmoly290.0535
Mean Motion15.21056982
Decay Rate4.2E-07
L11 43850U 18104B 19143.20019314 .00000042 00000-0 00000+0 0 9997
L22 43850 85.0334 73.9592 0017818 70.2639 290.0535 15.21056982 23998

Live tracking and technical data element details for SHIELDS 1 (NORAD 43850). SHIELDS 1 can be tracked NOW for your location showing map with azimuth and elevation plus other details from your city location.

Track the satellite on the map from your city or location and see movement details for azimuth, elevation, latitude, longitude, range, height, and movement on the map or in text.







IsCatalogInMostPopularTable: catalog: 43850, numindb: 54
Update: records affected: 1



GetName: 43850 SHIELDS 1

Hit Count: updated at: Thu, 23 May 2019 15:16:54 GMT